Starlink 30604

operational
NORAD ID: 58075 Int'l Des: 2023-160 Owner: SPXS Country: US Constellation: starlink
LEOCIRCULAR

Starlink 30604について

説明を読み込み中...

リアルタイム位置

3D地球を読み込み中...

次回通過

高度履歴

Altitude vs Time

uPlot chart will show altitude changes over time

軌道要素

1 58075U 23160A 25259.84528942 -.00000171 00000-0 24375-5 0 9998
2 58075 43.0030 305.1880 0001271 269.7328 90.3369 15.02531551106768
Epoch: Sep 16, 2025 • Age: 37 hours

現在のステータス

高度 562.9 km
速度 7.59 km/s
衛星直下点 42.00°N, 96.08°W
打ち上げ日 Oct 18, 2023
運用期間 1.9 years
タイプ internet

技術仕様

分類 Payload
質量 730.00 kg
乾燥質量 700.00 kg
総質量 730.00 kg
長さ 0.30 m
直径 4.10 m
スパン 29.00 m
形状 Box + pan
製造者 SPXS
バスタイプ Starlink V2M
フェーズステータス In Orbit
所有者/国 SPXS/US

大規模コンステレーション

Loading constellations...